Weather History for KALO - May, 2013

Change the Weather History Date:

Thursday, May 9, 2013

  Actual Average Record
Temperature  
Mean Temperature 60 °F 58 °F  
Max Temperature 66 °F 70 °F 95 °F (1934)
Min Temperature 54 °F 47 °F 27 °F (1945)
Degree Days  
Heating Degree Days 5 8  
Month to date heating degree days 110 81  
Since 1 July heating degree days 7121 6897  
Cooling Degree Days 0 1  
Month to date cooling degree days 0 9  
Year to date cooling degree days 4 17  
Growing Degree Days 10 (Base 50)    
Moisture  
Dew Point 58 °F    
Average Humidity 89    
Maximum Humidity 100    
Minimum Humidity 78    
Precipitation  
Precipitation 0.45 in 0.15 in 1.42 in (1996)
Month to date precipitation 2.82 1.26  
Year to date precipitation 15.59 8.85  
Snow  
Snow 0.00 in 0.00 in T in (1905)
Month to date snowfall 1.7 0.0  
Since 1 July snowfall 50.0 35.3  
Snow Depth 0.00 in    
Sea Level Pressure  
Sea Level Pressure 29.88 in    
Wind  
Wind Speed 9 mph (ESE)    
Max Wind Speed 22 mph    
Max Gust Speed 28 mph    
Visibility 7 miles    
Events Rain    
T = Trace of Precipitation, MM = Missing Value Source: NWS Daily Summary

Daily Weather History Graph

Daily Weather History Graph

Search for Another Location

Airport or City:

Trip Planner

Search our weather history database for the weather conditions in past years. The results will help you decide how hot, cold, wet, or windy it might be!

Date:

Astronomy

May. 09, 2013 Rise Set
Actual Time 5:53 AM CDT 8:18 PM CDT
Civil Twilight 5:22 AM CDT 8:50 PM CDT
Nautical Twilight 4:42 AM CDT 9:30 PM CDT
Astronomical Twilight 3:59 AM CDT 10:14 PM CDT
Moon 5:39 AM CDT (5/9) 8:14 PM CDT (5/9)
Length of Visible Light 15h 28m
Length of Day
14h 24m
Waning Crescent, 0% of the Moon is Illuminated
May 9
Waning Crescent
May 9
New
May 17
First Quarter
May 24
Full
May 31
Last Quarter

Hourly Weather History & Observations

Time (CDT) Temp. Dew Point Humidity Pressure Visibility Wind Dir Wind Speed Gust Speed Precip Events Conditions
12:54 AM 59.0 °F 57.0 °F 93% 29.94 in 9.0 mi Calm Calm - N/A   Overcast
1:54 AM 57.9 °F 57.0 °F 97% 29.92 in 10.0 mi Calm Calm - N/A   Overcast
2:54 AM 57.9 °F 57.0 °F 97% 29.92 in 9.0 mi NW 4.6 mph - 0.01 in   Overcast
3:54 AM 57.9 °F 57.0 °F 97% 29.90 in 6.0 mi North 3.5 mph - 0.00 in   Overcast
4:54 AM 57.9 °F 55.9 °F 93% 29.90 in 8.0 mi ENE 3.5 mph - N/A   Overcast
5:54 AM 57.9 °F 55.9 °F 93% 29.90 in 6.0 mi East 8.1 mph - 0.00 in Rain Light Rain
6:54 AM 57.9 °F 55.9 °F 93% 29.91 in 7.0 mi East 5.8 mph - 0.01 in   Overcast
7:54 AM 59.0 °F 57.0 °F 93% 29.91 in 3.0 mi SE 5.8 mph - 0.01 in Rain Rain
8:11 AM 57.2 °F 57.2 °F 100% 29.90 in 2.5 mi East 5.8 mph - 0.03 in Rain Rain
8:51 AM 57.2 °F 57.2 °F 100% 29.90 in 2.5 mi ESE 5.8 mph - 0.15 in Rain Rain
8:52 AM 57.9 °F 57.9 °F 100% 29.90 in 2.5 mi ESE 5.8 mph - 0.15 in Rain Rain
8:59 AM 59.0 °F 57.2 °F 94% 29.90 in 3.0 mi ESE 6.9 mph - 0.01 in Rain Light Rain
9:18 AM 59.0 °F 57.2 °F 94% 29.89 in 3.0 mi ESE 5.8 mph - 0.02 in Rain Light Rain
9:26 AM 59.0 °F 57.2 °F 94% 29.89 in 2.5 mi ESE 6.9 mph - 0.04 in Rain Rain
9:44 AM 59.0 °F 57.2 °F 94% 29.89 in 3.0 mi SE 5.8 mph - 0.06 in Rain Light Rain
9:54 AM 59.0 °F 57.9 °F 96% 29.89 in 3.0 mi SSE 8.1 mph - 0.08 in Rain Light Rain
10:54 AM 61.0 °F 59.0 °F 93% 29.89 in 9.0 mi South 9.2 mph - 0.03 in Rain Light Rain
11:05 AM 60.8 °F 59.0 °F 94% 29.89 in 9.0 mi South 5.8 mph - 0.00 in Rain Light Rain
11:34 AM 62.6 °F 60.8 °F 94% 29.89 in 10.0 mi South 6.9 mph - 0.00 in Rain Light Rain
11:44 AM 60.8 °F 59.0 °F 94% 29.89 in 10.0 mi South 5.8 mph - 0.01 in Rain Light Rain
11:54 AM 60.8 °F 59.0 °F 94% 29.89 in 10.0 mi South 6.9 mph - N/A Rain Light Rain
12:06 PM 60.8 °F 59.0 °F 94% 29.89 in 10.0 mi South 8.1 mph - 0.00 in   Overcast
12:08 PM 60.8 °F 59.0 °F 94% 29.89 in 10.0 mi South 9.2 mph - 0.00 in   Overcast
12:21 PM 60.8 °F 59.0 °F 94% 29.89 in 7.0 mi SSW 6.9 mph - 0.01 in Rain Light Rain
12:40 PM 60.8 °F 59.0 °F 94% 29.89 in 10.0 mi SSW 9.2 mph - 0.01 in Rain Light Rain
12:48 PM 60.8 °F 59.0 °F 94% 29.89 in 3.0 mi SSW 6.9 mph - 0.01 in Rain Light Rain
12:49 PM 60.8 °F 59.0 °F 94% 29.88 in 2.5 mi SSW 6.9 mph - 0.01 in Rain Rain
12:54 PM 61.0 °F 59.0 °F 93% 29.88 in 1.5 mi SSW 6.9 mph - 0.03 in Rain Rain
1:11 PM 60.8 °F 59.0 °F 94% 29.88 in 3.0 mi SSE 4.6 mph - 0.06 in Rain Light Rain
1:29 PM 60.8 °F 60.8 °F 100% 29.88 in 3.0 mi SSE 5.8 mph - N/A Rain Rain
1:54 PM 61.0 °F 60.1 °F 97% 29.88 in 8.0 mi South 6.9 mph - 0.08 in   Overcast
2:54 PM 63.0 °F 59.0 °F 87% 29.86 in 10.0 mi South 3.5 mph - 0.00 in   Overcast
3:39 PM 62.6 °F 59.0 °F 88% 29.84 in 10.0 mi NW 6.9 mph - 0.00 in Rain Light Rain
3:54 PM 63.0 °F 59.0 °F 87% 29.83 in 10.0 mi NNW 4.6 mph - 0.00 in Rain Light Rain
4:02 PM 64.4 °F 60.8 °F 88% 29.83 in 10.0 mi NNW 6.9 mph - 0.00 in   Overcast
4:39 PM 66.2 °F 57.2 °F 73% 29.82 in 10.0 mi NW 11.5 mph - 0.00 in   Overcast
4:47 PM 64.4 °F 57.2 °F 77% 29.82 in 10.0 mi NNW 10.4 mph - 0.00 in   Overcast
4:54 PM 64.9 °F 57.0 °F 75% 29.81 in 10.0 mi NNW 13.8 mph - 0.00 in   Overcast
5:54 PM 64.9 °F 57.9 °F 78% 29.81 in 10.0 mi NW 13.8 mph - N/A   Mostly Cloudy
6:54 PM 63.0 °F 57.9 °F 84% 29.81 in 10.0 mi NW 10.4 mph - N/A   Scattered Clouds
7:01 PM 62.6 °F 59.0 °F 88% 29.81 in 10.0 mi NW 11.5 mph - N/A   Mostly Cloudy
7:13 PM 62.6 °F 59.0 °F 88% 29.81 in 10.0 mi NE 10.4 mph 19.6 mph N/A   Overcast
7:54 PM 61.0 °F 57.9 °F 90% 29.83 in 10.0 mi NE 12.7 mph - N/A   Overcast
8:54 PM 57.9 °F 57.0 °F 97% 29.85 in 4.0 mi NNE 15.0 mph - 0.01 in Rain Light Rain
9:02 PM 57.2 °F 55.4 °F 94% 29.85 in 6.0 mi NNE 17.3 mph 23.0 mph 0.00 in Rain Light Rain
9:19 PM 57.2 °F 55.4 °F 94% 29.85 in 4.0 mi NNE 19.6 mph 23.0 mph 0.01 in Rain Rain
9:54 PM 57.0 °F 55.0 °F 93% 29.87 in 6.0 mi North 15.0 mph 21.9 mph 0.02 in   Overcast
10:54 PM 55.9 °F 54.0 °F 93% 29.88 in 6.0 mi North 16.1 mph - 0.00 in Rain Light Rain
11:54 PM 55.0 °F 52.0 °F 89% 29.90 in 10.0 mi NNE 16.1 mph - 0.01 in   Overcast